This is the latest recevied weather packets stored in our database for station/object N6GPM. If no packets are shown the sender has not sent any weather packets the latest 10 day(s).
| Time | Temp. | Humidity | Pressure | Rain* | Wind** | Luminosity | Snow |
|---|---|---|---|---|---|---|---|
| 1777861270 | 15° C | 69% | 1016.8 hPa | 0 mm | - | 1 W/m² | - |
| 1777860968 | 15° C | 68% | 1016.5 hPa | 0 mm | - | 3 W/m² | - |
| 1777860664 | 15.56° C | 68% | 1016.2 hPa | 0 mm | - | 6 W/m² | - |
| 1777860361 | 15.56° C | 68% | 1016.3 hPa | 0 mm | - | 11 W/m² | - |
| 1777860057 | 15.56° C | 68% | 1016.2 hPa | 0 mm | - | 12 W/m² | - |
| 1777859754 | 15.56° C | 68% | 1016.1 hPa | 0 mm | - | 16 W/m² | - |
| 1777859450 | 15.56° C | 68% | 1015.8 hPa | 0 mm | - | 24 W/m² | - |
| 1777859146 | 15.56° C | 68% | 1016 hPa | 0 mm | - | 26 W/m² | - |
| 1777858844 | 16.11° C | 67% | 1015.6 hPa | 0 mm | - | 51 W/m² | - |
| 1777858541 | 16.11° C | 68% | 1016 hPa | 0 mm | - | 75 W/m² | - |
| 1777858238 | 16.11° C | 68% | 1015.7 hPa | 0 mm | - | 73 W/m² | - |
| 1777857936 | 16.11° C | 68% | 1015.9 hPa | 0 mm | - | 76 W/m² | - |
| 1777857633 | 16.11° C | 68% | 1015.9 hPa | 0 mm | - | 105 W/m² | - |
| 1777857330 | 16.11° C | 68% | 1015.9 hPa | 0 mm | - | 112 W/m² | - |
| 1777857026 | 16.11° C | 67% | 1015.6 hPa | 0 mm | - | 58 W/m² | - |
| 1777856722 | 16.67° C | 67% | 1015.7 hPa | 0 mm | - | 86 W/m² | - |
| 1777856418 | 16.67° C | 67% | 1015.5 hPa | 0 mm | - | 108 W/m² | - |
| 1777856115 | 17.22° C | 67% | 1015.7 hPa | 0 mm | - | 131 W/m² | - |
| 1777855812 | 17.22° C | 67% | 1015.5 hPa | 0 mm | - | 129 W/m² | - |
| 1777855510 | 17.22° C | 68% | 1015.5 hPa | 0 mm | - | 125 W/m² | - |
| 1777855207 | 17.22° C | 67% | 1015.7 hPa | 0 mm | - | 152 W/m² | - |
| 1777854903 | 17.22° C | 67% | 1015.7 hPa | 0 mm | - | 309 W/m² | - |
| 1777854600 | 17.78° C | 68% | 1015.5 hPa | 0 mm | - | 136 W/m² | - |
| 1777854297 | 17.78° C | 67% | 1015.4 hPa | 0 mm | - | 259 W/m² | - |
| 1777853994 | 17.22° C | 68% | 1015.2 hPa | 0 mm | - | 205 W/m² | - |
* Rain latest hour (hover to see other rain measurements)
** Current wind speed in m/s (hover to see current wind gust speed)